time,AREA_1,AREA_2,AREA_3,AREA_4,AREA_5,AREA_6,AREA_7,AREA_8,AREA_9
1/1/2006 0:00,1624.32,370.8,302.4,440.8,1128.8,592,175.5,270.9,160.66
1/1/2006 1:00,1648.8,296.8,156.6,444,1011.2,582,187.2,277.2,161.82
1/1/2006 2:00,1560.6,290,159.3,425.6,972,561,180,272.7,158.34
1/1/2006 3:00,1476.72,265.2,157.5,401.2,936.8,549,176.4,268.2,156.02
1/1/2006 4:00,1398.6,265.2,160.2,386,902.4,531,171.9,267.3,154.86
1/1/2006 5:00,1344.6,264.4,161.1,370,870.4,517,169.2,261,153.7
1/1/2006 6:00,1314.72,249.2,159.3,360.4,852,508,163.8,254.7,150.22
1/1/2006 7:00,1308.96,279.2,153,357.2,841.6,506,162.9,263.7,149.64
1/1/2006 8:00,1264.32,258.4,137.7,342.4,822.4,491,163.8,272.7,147.9
1/1/2006 9:00,1290.24,239.2,136.8,342.8,809.6,466,156.6,280.8,142.1
1/1/2006 10:00,1348.92,281.6,138.6,358.4,800.8,480,162.9,283.5,143.84
1/1/2006 11:00,1414.08,276.4,135.9,372,838.4,496,167.4,282.6,146.74
1/1/2006 12:00,1465.2,276.8,141.3,383.6,876.8,508,171.9,279,151.38
1/1/2006 13:00,1480.68,275.6,206.1,388,900.8,512,172.8,274.5,151.96
1/1/2006 14:00,1480.32,265.6,278.1,389.2,924,512,173.7,274.5,153.7
1/1/2006 15:00,1476.72,259.6,268.2,391.2,952.8,519,171,280.8,150.8
1/1/2006 16:00,1478.52,291.6,280.8,398,971.2,513,171,306,149.64
1/1/2006 17:00,1493.28,276.8,277.2,403.2,979.2,513,168.3,312.3,146.74
1/1/2006 18:00,1542.96,268,293.4,414.4,1009.6,524,169.2,309.6,146.16
1/1/2006 19:00,1800,330.8,260.1,464.8,1100,576,178.2,311.4,154.86
1/1/2006 20:00,1961.64,364.4,319.5,508.8,1168,634,195.3,311.4,169.94
1/1/2006 21:00,1958.4,376.4,218.7,514.8,1179.2,641,193.5,302.4,169.94
1/1/2006 22:00,1863.72,421.6,297.9,502,1168,635,189.9,297,169.36
1/1/2006 23:00,1744.2,397.6,280.8,489.2,1155.2,618,183.6,281.7,165.3
1/2/2006 0:00,1624.32,370.8,302.4,440.8,1128.8,592,175.5,270.9,160.66
1/2/2006 1:00,1463.04,390.4,189.9,409.2,1157.6,560,169.2,268.2,152.54
1/2/2006 2:00,1359.72,374.8,210.6,386.8,1124,538,160.2,263.7,145
1/2/2006 3:00,1319.76,349.6,176.4,370,1098.4,515,154.8,266.4,140.36
1/2/2006 4:00,1331.64,354.4,178.2,369.2,1080.8,514,155.7,275.4,140.36
1/2/2006 5:00,1351.8,375.2,140.4,372.8,1074.4,512,154.8,289.8,138.62
1/2/2006 6:00,1424.88,389.2,183.6,391.2,1100,517,152.1,291.6,138.62
1/2/2006 7:00,1649.88,414.8,208.8,436,1177.6,526,154.8,303.3,139.78
1/2/2006 8:00,1751.04,441.2,215.1,501.6,1268,554,172.8,314.1,152.54
1/2/2006 9:00,1909.44,467.6,143.1,538.8,1378.4,597,185.4,324.9,159.5
1/2/2006 10:00,2022.12,511.2,151.2,596.8,1484,642,203.4,332.1,175.74
1/2/2006 11:00,2131.92,532.4,216.9,618.4,1551.2,674,221.4,334.8,189.08
1/2/2006 12:00,2187,543.6,221.4,654.8,1595.2,690,226.8,332.1,191.98
1/2/2006 13:00,2221.56,546.8,201.6,669.6,1628.8,697,234.9,331.2,200.1
1/2/2006 14:00,2224.08,550,144.9,673.6,1661.6,698,237.6,329.4,200.1
1/2/2006 15:00,2203.56,552.8,190.8,668.4,1675.2,692,243,342,203
1/2/2006 16:00,2211.84,528,214.2,665.6,1672,696,250.2,369.9,207.64
1/2/2006 17:00,2220.48,538,270.9,642,1664,701,246.6,371.7,203.58
1/2/2006 18:00,2254.68,530.8,225,641.2,1600,710,241.2,370.8,202.42
1/2/2006 19:00,2462.4,550.4,214.2,652.8,1616,750,246.6,365.4,207.06
1/2/2006 20:00,2590.92,578.4,171,711.2,1604,777,260.1,352.8,220.4
1/2/2006 21:00,2571.48,567.6,202.5,696.4,1568.8,772,252.9,334.8,215.18
1/2/2006 22:00,2444.76,552.4,205.2,665.6,1529.6,762,247.5,315.9,214.6
1/2/2006 23:00,2239.2,544.8,318.6,640.8,1487.2,739,234,276.3,203.58
1/3/2006 0:00,2032.56,507.2,268.2,567.6,1428.8,703,230.4,265.5,198.94
1/3/2006 1:00,1820.88,492,289.8,560.4,1320,677,210.6,260.1,184.44
1/3/2006 2:00,1693.08,485.2,41.4,529.6,1289.6,640,203.4,258.3,179.8
1/3/2006 3:00,1649.52,474.8,95.4,512,1257.6,627,195.3,264.6,173.42
1/3/2006 4:00,1623.24,467.2,24.3,506,1236.8,613,189,279,167.62
1/3/2006 5:00,1647.72,466,117.9,505.2,1228,608,189,306.9,166.46
1/3/2006 6:00,1725.12,473.2,74.7,514.4,1243.2,616,187.2,318.6,164.72
1/3/2006 7:00,1879.2,494,110.7,537.6,1272.8,640,194.4,325.8,171.1
1/3/2006 8:00,1982.52,514,151.2,570,1339.2,674,210.6,335.7,186.18
1/3/2006 9:00,2084.04,532,175.5,602.8,1400.8,705,211.5,347.4,187.92
1/3/2006 10:00,2169,553.2,180,641.6,1456,746,225.9,349.2,195.46
1/3/2006 11:00,2239.2,563.2,180.9,666.4,1500,766,237.6,353.7,205.9
1/3/2006 12:00,2273.4,580.4,171,687.6,1532,765,269.1,357.3,227.36
1/3/2006 13:00,2290.32,570.4,171,704.8,1557.6,773,275.4,357.3,234.32
1/3/2006 14:00,2282.4,579.6,185.4,708.8,1586.4,766,277.2,358.2,236.64
1/3/2006 15:00,2282.76,576,180.9,701.6,1605.6,752,282.6,363.6,237.22
1/3/2006 16:00,2284.2,577.6,193.5,700.8,1618.4,755,281.7,392.4,235.48
1/3/2006 17:00,2302.92,568.8,118.8,698.8,1619.2,752,275.4,389.7,231.42
1/3/2006 18:00,2313.36,557.6,114.3,692,1558.4,768,270.9,388.8,229.68
1/3/2006 19:00,2536.2,571.6,81.9,720.4,1544,825,273.6,382.5,236.06
1/3/2006 20:00,2606.04,606.8,154.8,772.4,1524.8,850,285.3,367.2,243.02
1/3/2006 21:00,2565,598,162,761.2,1505.6,848,281.7,350.1,240.7
1/3/2006 22:00,2466.36,571.2,162.9,727.6,1465.6,827,276.3,328.5,238.38
1/3/2006 23:00,2301.84,556.4,206.1,681.6,1429.6,793,268.2,321.3,232
1/4/2006 0:00,2102.76,532.4,153,622,1395.2,736,254.7,307.8,222.14
1/4/2006 1:00,1913.76,516.4,176.4,546,1500.8,743,225.9,300.6,196.04
1/4/2006 2:00,1788.12,501.2,133.2,520.4,1448.8,713,213.3,295.2,187.34
1/4/2006 3:00,1736.64,490,152.1,506,1404.8,691,204.3,297.9,179.8
1/4/2006 4:00,1711.44,487.6,153,501.2,1408.8,678,198.9,303.3,175.16
1/4/2006 5:00,1728.72,488.4,157.5,503.2,1381.6,675,197.1,317.7,172.26
1/4/2006 6:00,1823.04,498.4,140.4,517.6,1380.8,675,193.5,323.1,169.36
1/4/2006 7:00,2012.76,521.2,158.4,561.2,1445.6,693,200.7,335.7,175.16
1/4/2006 8:00,2086.2,529.2,137.7,605.6,1516,718,215.1,348.3,189.66
1/4/2006 9:00,2188.08,539.6,144,639.6,1583.2,748,223.2,355.5,195.46
1/4/2006 10:00,2271.6,545.6,135.9,662.8,1621.6,793,231.3,360.9,198.94
1/4/2006 11:00,2311.56,553.6,144.9,676.8,1649.6,818,240.3,366.3,206.48
1/4/2006 12:00,2358.72,568,162,688.8,1661.6,828,246.6,367.2,211.7
1/4/2006 13:00,2363.04,593.6,143.1,697.6,1673.6,829,250.2,367.2,216.34
1/4/2006 14:00,2338.56,590,168.3,701.6,1676,829,252.9,365.4,218.66
1/4/2006 15:00,2328.12,591.2,165.6,690.8,1678.4,823,259.2,366.3,221.56
1/4/2006 16:00,2345.04,591.2,181.8,694,1676.8,819,262.8,395.1,222.14
1/4/2006 17:00,2354.4,587.2,171,695.6,1664.8,821,256.5,393.3,219.24
1/4/2006 18:00,2387.88,582,173.7,682.8,1598.4,831,249.3,392.4,215.76
1/4/2006 19:00,2595.24,586.8,213.3,702.8,1584.8,867,251.1,387,219.82
1/4/2006 20:00,2678.4,589.6,180.9,736.8,1588,893,264.6,375.3,228.52
1/4/2006 21:00,2636.28,584,180,723.6,1577.6,890,256.5,354.6,223.3
1/4/2006 22:00,2525.4,565.2,178.2,692,1537.6,874,253.8,336.6,223.3
1/4/2006 23:00,2388.6,554,211.5,654.4,1507.2,848,241.2,333,212.86
1/5/2006 0:00,2159.28,528,171.9,601.2,1472.8,808,235.8,319.5,207.64
1/5/2006 1:00,1927.08,535.6,171.9,562.8,1592.8,770,229.5,312.3,212.86
1/5/2006 2:00,1800,518.4,197.1,530.4,1570.4,743,225.9,311.4,203
1/5/2006 3:00,1737,500.4,174.6,515.2,1564.8,722,221.4,315.9,197.78
1/5/2006 4:00,1721.52,494.4,162,506.8,1553.6,708,215.1,331.2,192.56
1/5/2006 5:00,1736.28,491.6,196.2,508.4,1541.6,704,213.3,360.9,189.66
1/5/2006 6:00,1836.36,498.8,176.4,515.6,1551.2,709,214.2,362.7,190.24
1/5/2006 7:00,2001.96,520.8,214.2,540,1625.6,736,216,362.7,197.2
1/5/2006 8:00,2076.48,536.4,159.3,573.2,1693.6,776,219.6,370.8,207.64
1/5/2006 9:00,2142.72,558,182.7,613.6,1767.2,810,228.6,372.6,216.34
1/5/2006 10:00,2227.68,576.4,137.7,649.2,1828,837,244.8,384.3,227.94
1/5/2006 11:00,2270.88,577.6,180,667.2,1840.8,854,252.9,388.8,236.64
1/5/2006 12:00,2304.36,578.8,169.2,682.8,1856,867,256.5,391.5,237.22
1/5/2006 13:00,2316.6,578,179.1,695.6,1863.2,870,264.6,391.5,243.6
1/5/2006 14:00,2298.24,585.2,184.5,696.8,1880.8,861,266.4,384.3,246.5
1/5/2006 15:00,2284.56,576,204.3,687.6,1903.2,854,262.8,391.5,245.34
1/5/2006 16:00,2300.76,580,188.1,690.8,1898.4,857,264.6,414,246.5
1/5/2006 17:00,2308.32,575.6,203.4,688.4,1881.6,852,256.5,408.6,238.96
1/5/2006 18:00,2349.36,557.2,185.4,676.4,1849.6,856,254.7,409.5,234.9
1/5/2006 19:00,2559.6,574,200.7,696.4,1800.8,881,267.3,404.1,236.64
1/5/2006 20:00,2612.52,589.6,160.2,734.8,1819.2,918,279,397.8,240.12
1/5/2006 21:00,2559.96,581.6,163.8,718.4,1772,904,271.8,375.3,234.9
1/5/2006 22:00,2455.92,568.8,162.9,694,1736,893,266.4,356.4,229.68
1/5/2006 23:00,2289.6,560,211.5,663.6,1692,867,253.8,324.9,220.4
1/6/2006 0:00,2148.84,535.2,174.6,613.2,1702.4,815,246.6,313.2,214.02
1/6/2006 1:00,1892.52,532,169.2,575.6,1692.8,792,229.5,306.9,201.84
1/6/2006 2:00,1777.68,523.2,89.1,538,1637.6,760,216.9,304.2,190.82
1/6/2006 3:00,1729.8,498,212.4,518.8,1592.8,733,213.3,307.8,185.6
1/6/2006 4:00,1708.92,494,162,510.4,1597.6,715,206.1,323.1,179.8
1/6/2006 5:00,1728.36,502.8,142.2,508.4,1601.6,707,202.5,354.6,175.74
1/6/2006 6:00,1802.52,502.8,188.1,514.4,1609.6,711,204.3,354.6,177.48
1/6/2006 7:00,1960.56,518.8,191.7,538.4,1660,734,209.7,357.3,182.12
1/6/2006 8:00,2044.08,536.4,157.5,566.4,1757.6,754,225.9,360,197.2
1/6/2006 9:00,2124.72,561.6,159.3,601.2,1848.8,783,228.6,363.6,198.94
1/6/2006 10:00,2201.4,581.2,213.3,633.2,1912.8,824,239.4,369,205.9
1/6/2006 11:00,2246.76,576.4,144,653.2,1958.4,853,243.9,369.9,210.54
1/6/2006 12:00,2274.12,589.6,162.9,667.2,2002.4,860,249.3,370.8,214.02
1/6/2006 13:00,2286.72,606,121.5,677.2,2016,862,257.4,369,220.98
1/6/2006 14:00,2266.2,586.8,251.1,680.8,2015.2,858,258.3,362.7,223.3
1/6/2006 15:00,2250.72,585.2,249.3,673.2,1994.4,844,258.3,362.7,220.4
1/6/2006 16:00,2244.24,590,216,666.4,1978.4,833,258.3,386.1,219.24
1/6/2006 17:00,2253.96,576.8,208.8,661.6,1950.4,828,254.7,388.8,218.08
1/6/2006 18:00,2278.08,544.4,238.5,651.6,1896,831,253.8,382.5,219.24
1/6/2006 19:00,2457,567.6,228.6,674.4,1817.6,858,259.2,374.4,222.14
1/6/2006 20:00,2532.96,600.4,225.9,716,1807.2,885,271.8,367.2,233.16
1/6/2006 21:00,2489.4,592,278.1,700.4,1805.6,873,265.5,351.9,229.68
1/6/2006 22:00,2384.64,574.8,220.5,671.6,1769.6,854,257.4,335.7,223.88
1/6/2006 23:00,2247.84,563.6,227.7,641.6,1762.4,829,246.6,310.5,215.76
1/7/2006 0:00,2063.88,542,257.4,598.8,1761.6,785,235.8,299.7,205.9
1/7/2006 1:00,1889.64,489.2,185.4,548,1596,740,238.5,292.5,222.72
1/7/2006 2:00,1765.08,485.2,181.8,520,1577.6,705,226.8,289.8,210.54
1/7/2006 3:00,1695.96,470.8,171,502.8,1519.2,695,216,291.6,202.42
1/7/2006 4:00,1668.24,465.2,168.3,494.4,1486.4,684,207.9,297.9,193.72
1/7/2006 5:00,1673.64,466.4,189.9,493.6,1476,679,208.8,301.5,195.46
1/7/2006 6:00,1683,463.2,190.8,500,1475.2,684,209.7,306.9,194.88
1/7/2006 7:00,1787.4,486.8,179.1,520.8,1527.2,693,216,315.9,197.78
1/7/2006 8:00,1838.88,483.6,186.3,547.6,1584.8,698,217.8,335.7,201.84
1/7/2006 9:00,1929.6,502.4,169.2,589.6,1634.4,716,215.1,342,200.68
1/7/2006 10:00,2041.2,523.6,167.4,619.2,1688,757,230.4,339.3,218.08
1/7/2006 11:00,2113.92,532.8,170.1,634,1724,778,241.2,343.8,226.78
1/7/2006 12:00,2148.12,541.6,174.6,643.6,1771.2,780,246.6,340.2,232.58
1/7/2006 13:00,2165.4,553.6,166.5,644.8,1768,784,249.3,335.7,234.32
1/7/2006 14:00,2134.08,537.2,204.3,631.6,1737.6,772,248.4,322.2,233.16
1/7/2006 15:00,2099.16,534.8,170.1,613.2,1732.8,762,249.3,331.2,227.36
1/7/2006 16:00,2076.12,534.8,198.9,602.8,1712,747,246.6,354.6,225.04
1/7/2006 17:00,2074.32,524,155.7,597.2,1688,737,241.2,362.7,220.98
1/7/2006 18:00,2082.96,562,196.2,597.6,1728,748,234.9,359.1,216.92
1/7/2006 19:00,2288.88,577.2,173.7,636,1798.4,789,237.6,342,220.4
1/7/2006 20:00,2362.68,527.6,210.6,656,1764.8,800,262.8,328.5,241.86
1/7/2006 21:00,2324.16,515.6,162,638.8,1772,785,254.7,315.9,231.42
1/7/2006 22:00,2245.32,530,213.3,615.6,1790.4,764,248.4,297.9,226.2
1/7/2006 23:00,2113.2,550.4,166.5,587.6,1756,735,243,287.1,222.14
1/8/2006 0:00,1955.16,529.6,189,545.6,1731.2,702,229.5,277.2,214.02
1/8/2006 1:00,1847.16,468,145.8,515.2,1692,710,220.5,276.3,204.74
1/8/2006 2:00,1713.96,444.4,159.3,484,1623.2,685,212.4,274.5,194.88
1/8/2006 3:00,1639.44,430.4,154.8,465.2,1567.2,665,208.8,265.5,190.82
1/8/2006 4:00,1609.92,422.8,163.8,451.6,1533.6,651,202.5,268.2,185.02
1/8/2006 5:00,1598.76,420.4,162.9,446.8,1476,647,200.7,278.1,184.44
1/8/2006 6:00,1605.24,409.2,148.5,448.8,1446.4,648,196.2,279,180.96
1/8/2006 7:00,1646.64,414.8,179.1,455.6,1401.6,650,198,274.5,183.86
1/8/2006 8:00,1681.2,418.8,177.3,453.6,1418.4,653,203.4,294.3,189.66
1/8/2006 9:00,1760.04,428.8,138.6,467.6,1450.4,655,205.2,305.1,186.76
1/8/2006 10:00,1841.04,444,180,491.6,1475.2,674,213.3,311.4,191.4
1/8/2006 11:00,1917.72,443.2,163.8,504.4,1537.6,692,219.6,319.5,197.78
1/8/2006 12:00,1958.76,469.2,189,513.2,1583.2,692,228.6,316.8,204.16
1/8/2006 13:00,1964.52,458.8,143.1,514.4,1598.4,687,230.4,314.1,204.74
1/8/2006 14:00,1931.76,458.8,153,517.6,1572,683,232.2,313.2,205.9
1/8/2006 15:00,1931.76,444.8,176.4,518.8,1543.2,679,230.4,314.1,201.84
1/8/2006 16:00,1926.36,450.4,135.9,516.8,1509.6,678,227.7,338.4,200.1
1/8/2006 17:00,1931.4,454.8,153,516,1512,671,222.3,344.7,200.1
1/8/2006 18:00,1991.52,452.4,161.1,520,1481.6,686,220.5,350.1,200.1
1/8/2006 19:00,2252.52,480.4,182.7,568.8,1588.8,752,227.7,346.5,204.74
1/8/2006 20:00,2395.44,486,173.7,608.4,1717.6,783,248.4,333.9,223.3
1/8/2006 21:00,2403.36,495.2,189,606.8,1717.6,788,249.3,303.3,223.88
1/8/2006 22:00,2320.2,486.4,199.8,592.4,1710.4,784,243,296.1,222.72
1/8/2006 23:00,2134.44,468,183.6,566,1690.4,767,231.3,286.2,214.02
1/9/2006 0:00,1907.28,437.6,163.8,520.4,1648.8,731,222.3,283.5,205.9
1/9/2006 1:00,1707.48,429.2,164.7,475.6,1696,720,194.4,282.6,181.54
1/9/2006 2:00,1598.76,433.2,137.7,450.8,1649.6,686,184.5,284.4,170.52
1/9/2006 3:00,1557.72,419.2,140.4,440,1594.4,670,183.6,295.2,168.78
1/9/2006 4:00,1546.2,418.8,148.5,437.2,1580,667,180.9,306.9,164.14
1/9/2006 5:00,1577.16,427.6,205.2,441.6,1557.6,665,182.7,342,163.56
1/9/2006 6:00,1699.92,440.8,198,462,1592,667,186.3,347.4,166.46
1/9/2006 7:00,1967.4,483.2,291.6,514,1673.6,695,193.5,356.4,171.1
1/9/2006 8:00,2106.72,509.6,294.3,560.8,1784.8,734,211.5,364.5,185.6
1/9/2006 9:00,2197.08,534.8,253.8,602.8,1869.6,778,222.3,369,193.14
1/9/2006 10:00,2285.28,545.6,223.2,634.8,1935.2,824,235.8,371.7,199.52
1/9/2006 11:00,2364.84,571.2,276.3,653.2,1962.4,849,247.5,375.3,206.48
1/9/2006 12:00,2415.96,573.6,201.6,671.2,2008.8,859,254.7,379.8,211.7
1/9/2006 13:00,2399.4,564,184.5,680,1989.6,859,262.8,374.4,216.92
1/9/2006 14:00,2377.8,566.8,252.9,676.8,1990.4,850,262.8,373.5,215.76
1/9/2006 15:00,2373.12,568,133.2,670.4,1997.6,841,266.4,369,215.76
1/9/2006 16:00,2371.68,558.8,127.8,678,1986.4,840,270,390.6,220.4
1/9/2006 17:00,2388.96,582.8,79.2,678.4,1984,841,272.7,392.4,220.4
1/9/2006 18:00,2411.28,558.8,99,664,1926.4,845,270,386.1,217.5
1/9/2006 19:00,2604.6,588.8,112.5,688,1893.6,896,270,378,218.66
1/9/2006 20:00,2725.2,598,127.8,721.2,1842.4,917,287.1,372.6,236.06
1/9/2006 21:00,2692.44,594.8,114.3,706.8,1832.8,915,283.5,350.1,239.54
1/9/2006 22:00,2555.28,580.8,126.9,672.8,1803.2,906,277.2,333,236.64
1/9/2006 23:00,2338.56,572,139.5,632.8,1789.6,877,264.6,312.3,229.1
1/10/2006 0:00,2118.24,543.2,117,576.8,1763.2,834,252,301.5,214.6
1/10/2006 1:00,1900.08,525.6,270.9,554.8,1746.4,758,228.6,296.1,201.26
1/10/2006 2:00,1781.28,513.6,260.1,524.8,1708.8,726,214.2,298.8,188.5
1/10/2006 3:00,1722.24,493.2,241.2,506.4,1678.4,710,207.9,307.8,183.86
1/10/2006 4:00,1704.96,500.8,232.2,500.4,1648.8,705,204.3,325.8,181.54
1/10/2006 5:00,1728,506,332.1,500.4,1676.8,700,204.3,355.5,180.96
1/10/2006 6:00,1834.2,508.8,210.6,509.2,1702.4,706,208.8,368.1,183.86
1/10/2006 7:00,2053.44,532.8,213.3,532.8,1782.4,746,214.2,365.4,189.66
1/10/2006 8:00,2171.16,554.4,228.6,564.4,1862.4,776,229.5,360.9,204.16
1/10/2006 9:00,2241,573.2,202.5,596.8,1939.2,801,234,369.9,208.22
1/10/2006 10:00,2294.28,596.8,265.5,635.2,2015.2,825,248.4,374.4,217.5
1/10/2006 11:00,2358,613.2,230.4,660,2045.6,845,258.3,369.9,224.46
1/10/2006 12:00,2391.12,617.2,257.4,680.8,2057.6,847,263.7,372.6,230.26
1/10/2006 13:00,2397.24,620.4,300.6,697.2,2045.6,844,271.8,371.7,237.8
1/10/2006 14:00,2375.28,630.8,205.2,701.6,2054.4,839,268.2,365.4,236.64
1/10/2006 15:00,2365.56,628.4,214.2,694.4,2033.6,835,268.2,365.4,234.32
1/10/2006 16:00,2381.4,632,219.6,694,2020,839,271.8,383.4,235.48
1/10/2006 17:00,2399.4,619.6,192.6,692,2008,831,271.8,396.9,236.06
1/10/2006 18:00,2428.92,606,232.2,685.6,1968,832,266.4,396,234.32
1/10/2006 19:00,2626.92,614.8,183.6,714,1902.4,874,270.9,386.1,236.06
1/10/2006 20:00,2719.8,627.2,174.6,765.6,1892.8,903,286.2,368.1,248.82
1/10/2006 21:00,2682,620,181.8,754,1876,898,280.8,345.6,244.18
1/10/2006 22:00,2554.2,611.6,177.3,720.4,1846.4,882,277.2,323.1,241.86
1/10/2006 23:00,2345.04,584.4,223.2,674.8,1832.8,856,265.5,310.5,233.16
1/11/2006 0:00,2127.24,542.4,182.7,615.6,1815.2,806,249.3,299.7,220.98
1/11/2006 1:00,1888.92,524.4,182.7,554.8,1721.6,760,255.6,295.2,203
1/11/2006 2:00,1773.36,506.4,148.5,528.4,1667.2,727,240.3,297.9,189.66
1/11/2006 3:00,1721.52,495.2,148.5,513.6,1631.2,710,228.6,308.7,180.96
1/11/2006 4:00,1695.96,492.8,197.1,508.8,1622.4,695,221.4,328.5,178.64
1/11/2006 5:00,1723.32,490.8,184.5,510.8,1631.2,692,221.4,352.8,178.64
1/11/2006 6:00,1829.88,503.6,135.9,524.4,1680.8,701,224.1,360.9,179.22
1/11/2006 7:00,2006.28,528.8,199.8,570,1768,722,234,360.9,186.18
1/11/2006 8:00,2090.88,542.8,192.6,614.8,1889.6,766,248.4,367.2,203.58
1/11/2006 9:00,2180.16,550.8,198,648.8,1939.2,805,258.3,365.4,212.86
1/11/2006 10:00,2228.4,560.8,161.1,672.4,1996.8,837,272.7,371.7,223.3
1/11/2006 11:00,2286,561.2,162.9,686.8,2013.6,850,284.4,368.1,231.42
1/11/2006 12:00,2331,576,208.8,699.6,1996.8,856,291.6,369,231.42
1/11/2006 13:00,2327.4,580,156.6,708.4,2024,844,294.3,369.9,233.74
1/11/2006 14:00,2314.08,596.4,194.4,712.8,1993.6,838,296.1,363.6,237.22
1/11/2006 15:00,2320.92,606,160.2,701.6,1991.2,832,301.5,361.8,236.06
1/11/2006 16:00,2330.64,602.8,146.7,704.8,1952,838,302.4,386.1,238.38
1/11/2006 17:00,2336.04,599.6,170.1,706.8,1924.8,840,298.8,394.2,236.64
1/11/2006 18:00,2339.28,588,176.4,693.6,1884,842,297.9,393.3,236.64
1/11/2006 19:00,2527.56,614.8,203.4,714,1795.2,877,297,387.9,236.06
1/11/2006 20:00,2654.28,612,185.4,748.8,1840,900,307.8,375.3,247.66
1/11/2006 21:00,2620.44,608.8,187.2,734.8,1812.8,888,296.1,351,239.54
1/11/2006 22:00,2492.28,588,189,704,1805.6,873,286.2,329.4,233.74
1/11/2006 23:00,2298.6,577.2,198,664.4,1796.8,847,271.8,321.3,222.72
1/12/2006 0:00,2104.2,544.4,132.3,610.8,1778.4,803,253.8,316.8,206.48
1/12/2006 1:00,1917,589.6,226.8,570.4,1674.4,745,248.4,306.9,197.78
1/12/2006 2:00,1796.04,579.6,387.9,536.8,1633.6,717,238.5,303.3,187.92
1/12/2006 3:00,1737.36,564.8,343.8,520,1605.6,699,234,301.5,182.7
1/12/2006 4:00,1717.92,554,242.1,512.4,1564.8,692,228.6,320.4,179.22
1/12/2006 5:00,1748.16,556.8,409.5,512,1592.8,701,226.8,351.9,178.64
1/12/2006 6:00,1855.08,566.8,376.2,520.4,1631.2,709,231.3,369,179.8
1/12/2006 7:00,2054.16,586.8,390.6,546.4,1736.8,735,237.6,360,187.34
1/12/2006 8:00,2149.2,604.4,255.6,580,1828,767,247.5,360.9,203
1/12/2006 9:00,2205.36,613.6,368.1,617.6,1871.2,798,252.9,365.4,209.96
1/12/2006 10:00,2279.16,643.2,348.3,651.6,1914.4,831,261,371.7,215.76
1/12/2006 11:00,2320.92,648.8,376.2,670.8,1940.8,853,268.2,369,219.82
1/12/2006 12:00,2337.84,646,331.2,688.8,1926.4,867,278.1,365.4,223.3
1/12/2006 13:00,2349,646.4,310.5,703.2,1932,874,283.5,371.7,227.36
1/12/2006 14:00,2341.44,653.6,302.4,706.4,1934.4,873,286.2,361.8,230.26
1/12/2006 15:00,2323.8,644.8,256.5,696.8,1937.6,867,287.1,366.3,228.52
1/12/2006 16:00,2328.48,646.8,182.7,698.8,1898.4,871,292.5,389.7,230.26
1/12/2006 17:00,2343.24,646,229.5,697.6,1892.8,865,290.7,393.3,228.52
1/12/2006 18:00,2342.52,625.6,355.5,682.8,1848.8,868,286.2,393.3,227.94
1/12/2006 19:00,2530.08,608,207.9,700,1751.2,880,282.6,386.1,225.62
1/12/2006 20:00,2644.56,621.2,182.7,741.2,1776,910,291.6,381.6,234.9
1/12/2006 21:00,2598.12,609.2,187.2,725.6,1778.4,899,288,353.7,233.16
1/12/2006 22:00,2480.76,593.2,184.5,697.6,1751.2,879,283.5,331.2,229.68
1/12/2006 23:00,2307.24,606.4,288,667.2,1719.2,851,269.1,309.6,222.14
1/13/2006 0:00,2105.64,597.6,238.5,618.8,1708.8,800,257.4,296.1,207.06
1/13/2006 1:00,1910.88,595.6,239.4,586.4,1688.8,781,237.6,291.6,192.56
1/13/2006 2:00,1802.88,586.8,181.8,548.8,1613.6,751,234,289.8,185.6
1/13/2006 3:00,1740.6,569.2,281.7,529.6,1584,734,225,303.3,179.8
1/13/2006 4:00,1725.12,564.4,218.7,521.2,1580,724,224.1,316.8,177.48
1/13/2006 5:00,1761.12,569.6,232.2,518.8,1566.4,719,225,342.9,177.48
1/13/2006 6:00,1856.16,568.4,225,525.2,1620.8,726,224.1,351.9,177.48
1/13/2006 7:00,2030.04,587.2,224.1,549.2,1707.2,754,225.9,351.9,180.38
1/13/2006 8:00,2122.2,606.8,234.9,578,1809.6,784,241.2,364.5,196.04
1/13/2006 9:00,2201.04,626.8,207.9,612.8,1879.2,815,250.2,370.8,204.74
1/13/2006 10:00,2241,646.8,277.2,645.6,1889.6,849,257.4,382.5,211.12
1/13/2006 11:00,2294.64,646,229.5,665.6,1922.4,869,261.9,369.9,215.76
1/13/2006 12:00,2328.84,661.6,247.5,680,1945.6,883,269.1,374.4,217.5
1/13/2006 13:00,2336.76,664.8,250.2,690.4,1936,878,273.6,372.6,220.98
1/13/2006 14:00,2316.24,653.2,294.3,694,1933.6,873,276.3,361.8,222.72
1/13/2006 15:00,2317.68,656.8,324.9,686.4,1924.8,859,277.2,361.8,222.72
1/13/2006 16:00,2316.24,646.4,284.4,679.6,1957.6,865,283.5,378,227.94
1/13/2006 17:00,2323.8,644.4,204.3,674.4,1973.6,859,277.2,390.6,225.04
1/13/2006 18:00,2344.68,620,298.8,664.4,1917.6,858,273.6,377.1,223.88
1/13/2006 19:00,2502.72,612.8,257.4,687.6,1837.6,880,276.3,376.2,222.14
1/13/2006 20:00,2617.92,630,186.3,729.6,1855.2,907,292.5,361.8,233.74
1/13/2006 21:00,2577.24,620.4,187.2,713.2,1869.6,900,289.8,338.4,232.58
1/13/2006 22:00,2465.64,600.8,184.5,685.2,1814.4,882,279,319.5,225.04
1/13/2006 23:00,2306.16,605.6,250.2,654.4,1780.8,854,268.2,308.7,216.34
1/14/2006 0:00,2124.72,605.2,223.2,611.6,1719.2,816,252.9,298.8,205.32
1/14/2006 1:00,1871.64,588.8,186.3,559.6,1637.6,755,234.9,281.7,193.72
1/14/2006 2:00,1789.92,568.4,248.4,530.4,1573.6,727,225,279.9,185.6
1/14/2006 3:00,1728,564,229.5,516,1526.4,713,218.7,282.6,181.54
1/14/2006 4:00,1698.48,542.4,226.8,507.2,1525.6,705,208.8,290.7,175.16
1/14/2006 5:00,1692.72,544.8,191.7,504.4,1508,700,208.8,298.8,174.58
1/14/2006 6:00,1713.6,551.6,307.8,509.6,1532.8,697,209.7,321.3,175.74
1/14/2006 7:00,1807.56,552.4,240.3,527.6,1548.8,705,215.1,322.2,182.12
1/14/2006 8:00,1855.08,570,249.3,552.4,1594.4,725,221.4,330.3,192.56
1/14/2006 9:00,1939.32,594,222.3,580,1628.8,739,228.6,341.1,198.94
1/14/2006 10:00,2036.88,600.4,304.2,612,1695.2,769,246.6,353.7,211.12
1/14/2006 11:00,2084.04,618,205.2,633.2,1735.2,786,257.4,353.7,220.4
1/14/2006 12:00,2122.56,611.6,213.3,649.6,1744,794,261.9,350.1,223.3
1/14/2006 13:00,2142.36,610.8,221.4,656.4,1765.6,795,266.4,343.8,225.62
1/14/2006 14:00,2123.64,617.2,213.3,651.6,1776.8,783,267.3,340.2,225.04
1/14/2006 15:00,2097.72,590.8,139.5,628.8,1757.6,773,263.7,327.6,221.56
1/14/2006 16:00,2082.96,601.6,261,614.8,1734.4,764,264.6,361.8,220.4
1/14/2006 17:00,2075.4,592,163.8,611.2,1684.8,758,259.2,361.8,217.5
1/14/2006 18:00,2088.72,570.4,243,606.8,1687.2,765,256.5,351.9,218.66
1/14/2006 19:00,2283.12,565.2,219.6,630.8,1768.8,802,263.7,351,225.04
1/14/2006 20:00,2368.08,544.4,221.4,672.4,1714.4,832,285.3,335.7,243.6
1/14/2006 21:00,2326.32,536.8,185.4,654.4,1697.6,820,274.5,324,235.48
1/14/2006 22:00,2243.16,546.8,216.9,632.4,1713.6,810,264.6,309.6,230.84
1/14/2006 23:00,2128.32,553.6,185.4,604.4,1708.8,786,258.3,289.8,222.72
1/15/2006 0:00,1989.72,547.2,191.7,566.4,1637.6,753,249.3,283.5,210.54
1/15/2006 1:00,1861.92,528.8,208.8,528,1569.6,729,225.9,281.7,191.4
1/15/2006 2:00,1729.44,511.2,174.6,491.2,1504.8,707,225,279,190.24
1/15/2006 3:00,1649.52,502,171.9,472,1473.6,691,218.7,278.1,185.02
1/15/2006 4:00,1613.88,494,145.8,461.2,1440.8,673,206.1,283.5,174
1/15/2006 5:00,1598.76,491.6,230.4,456,1437.6,667,199.8,280.8,169.94
1/15/2006 6:00,1604.88,478.8,242.1,457.2,1395.2,664,199.8,279,169.94